Location: LDNL
(36.4545°S, 141.6685°E)
Time: 03:47:01
(UTC+11:00)

Vanguard 2 - Pass Details

Date: 17 August 2022
Orbit: 552 x 2934 km, 32.9° (Epoch: 06 October)

Event Time Altitude Azimuth Distance (km) Brightness Sun altitude
Rises 16:13:58 0° 296° (WNW) 6,649 13.9 18.7°
Reaches altitude 10° 16:18:17 10° 298° (WNW) 5,729 14.4 18.0°
Maximum altitude 16:36:07 68° 16° (NNE) 2,876 10.8 14.9°
Drops below altitude 10° 16:50:01 10° 94° (E) 4,610 11.0 12.5°
Sets 16:53:05 0° 96° (E) 5,341 11.2 11.9°
